Location: Biltmore Gardens
(41.6070°N, 83.4666°W)
Time: 14:16:19
(UTC+00:00)

Cosmos 1933 - Pass Details

Date: 14 July 2020
Orbit: 547 x 563 km, 82.5° (Epoch: 05 August)

Event Time Altitude Azimuth Distance (km) Brightness Sun altitude
Rises 03:58:41 0° 355° (N) 2,732 8.1 -22.6°
Reaches altitude 10° 04:00:53 10° 358° (N) 1,836 6.9 -22.8°
Enters shadow 04:04:40 63° 60° (ENE) 618 3.5 -23.1°
